Location: *
(38.9800°N, 16.0500°E)
Time: 20:43:11
(UTC+00:00)

Meteor 2-9 Rocket - Pass Details

Date: 07 April 2020
Orbit: 792 x 895 km, 81.3° (Epoch: 24 May)

Event Time Altitude Azimuth Distance (km) Brightness Sun altitude
Rises 02:33:05 0° 348° (NNW) 3,514 7.7 -22.3°
Reaches altitude 10° 02:35:33 10° 346° (NNW) 2,573 6.9 -21.9°
Maximum altitude 02:41:24 71° 264° (W) 942 4.2 -20.9°
Drops below altitude 10° 02:47:11 10° 181° (S) 2,541 6.4 -19.9°
Enters shadow 02:47:40 - 181° (S) 2,722 6.6 -19.8°
